Time,TemperatureF,DewpointF,PressureIn,WindDirection,WindDirectionDegrees,WindSpeedMPH,WindSpeedGustMPH,Humidity,HourlyPrecipIn,Conditions,Clouds,dailyrainin,SolarRadiationWatts/m^2,SoftwareType,DateUTC
2013-01-21 00:02:00,45.8,29.7,30.05,North,1,0.0,0.0,53,0.00,,,0.00,0,WeatherCatV1.11B39,2013-01-21 07:02:00,
2013-01-21 00:07:00,45.5,29.4,30.05,North,1,0.0,0.0,53,0.00,,,0.00,0,WeatherCatV1.11B39,2013-01-21 07:07:00,
2013-01-21 00:12:00,45.2,30.0,30.05,North,1,0.0,0.0,55,0.00,,,0.00,0,WeatherCatV1.11B39,2013-01-21 07:12:00,
2013-01-21 00:17:00,45.0,29.8,30.05,North,1,0.0,0.0,55,0.00,,,0.00,0,WeatherCatV1.11B39,2013-01-21 07:17:00,
2013-01-21 00:22:00,44.6,29.9,30.05,North,1,0.0,1.0,56,0.00,,,0.00,0,WeatherCatV1.11B39,2013-01-21 07:22:00,
2013-01-21 00:27:00,44.3,29.6,30.05,North,1,0.0,0.0,56,0.00,,,0.00,0,WeatherCatV1.11B39,2013-01-21 07:27:00,
2013-01-21 00:32:00,44.5,29.8,30.05,North,1,0.0,0.0,56,0.00,,,0.00,0,WeatherCatV1.11B39,2013-01-21 07:32:00,
2013-01-21 00:37:00,44.2,29.9,30.05,North,1,0.0,0.0,57,0.00,,,0.00,0,WeatherCatV1.11B39,2013-01-21 07:37:00,
2013-01-21 00:42:00,44.1,29.9,30.05,North,1,0.0,0.0,57,0.00,,,0.00,0,WeatherCatV1.11B39,2013-01-21 07:42:00,
2013-01-21 00:47:00,44.0,29.8,30.04,North,1,0.0,0.0,57,0.00,,,0.00,0,WeatherCatV1.11B39,2013-01-21 07:47:00,
2013-01-21 00:52:00,43.8,30.0,30.04,North,1,1.0,1.0,58,0.00,,,0.00,0,WeatherCatV1.11B39,2013-01-21 07:52:00,
2013-01-21 00:57:00,43.7,29.9,30.04,North,1,0.0,0.0,58,0.00,,,0.00,0,WeatherCatV1.11B39,2013-01-21 07:57:00,
2013-01-21 01:02:00,43.6,29.8,30.04,North,1,0.0,0.0,58,0.00,,,0.00,0,WeatherCatV1.11B39,2013-01-21 08:02:00,
2013-01-21 01:07:00,43.4,30.0,30.04,North,1,0.0,0.0,59,0.00,,,0.00,0,WeatherCatV1.11B39,2013-01-21 08:07:00,
2013-01-21 01:12:00,43.4,30.0,30.04,North,1,0.0,0.0,59,0.00,,,0.00,0,WeatherCatV1.11B39,2013-01-21 08:12:00,
2013-01-21 01:17:00,43.3,29.9,30.04,North,1,0.0,0.0,59,0.00,,,0.00,0,WeatherCatV1.11B39,2013-01-21 08:17:00,
2013-01-21 01:22:00,43.3,29.9,30.04,North,1,0.0,1.0,59,0.00,,,0.00,0,WeatherCatV1.11B39,2013-01-21 08:22:00,
2013-01-21 01:27:00,43.2,29.9,30.03,North,1,0.0,1.0,59,0.00,,,0.00,0,WeatherCatV1.11B39,2013-01-21 08:27:00,
2013-01-21 01:32:00,43.4,29.6,30.03,North,1,1.0,2.0,58,0.00,,,0.00,0,WeatherCatV1.11B39,2013-01-21 08:32:00,
2013-01-21 01:37:00,43.7,29.9,30.03,North,1,0.0,0.0,58,0.00,,,0.00,0,WeatherCatV1.11B39,2013-01-21 08:37:00,
2013-01-21 01:42:00,43.8,29.6,30.03,North,1,1.0,1.0,57,0.00,,,0.00,0,WeatherCatV1.11B39,2013-01-21 08:42:00,
2013-01-21 01:47:00,43.9,29.7,30.03,North,1,1.0,1.0,57,0.00,,,0.00,0,WeatherCatV1.11B39,2013-01-21 08:47:00,
2013-01-21 01:52:00,43.7,29.9,30.04,North,1,2.0,3.0,58,0.00,,,0.00,0,WeatherCatV1.11B39,2013-01-21 08:52:00,
2013-01-21 01:57:00,43.6,29.8,30.04,North,1,1.0,2.0,58,0.00,,,0.00,0,WeatherCatV1.11B39,2013-01-21 08:57:00,
2013-01-21 02:02:00,43.7,29.9,30.04,North,1,0.0,1.0,58,0.00,,,0.00,0,WeatherCatV1.11B39,2013-01-21 09:02:00,
2013-01-21 02:07:00,43.6,29.8,30.04,North,1,0.0,0.0,58,0.00,,,0.00,0,WeatherCatV1.11B39,2013-01-21 09:07:00,
2013-01-21 02:12:00,43.4,29.2,30.03,North,1,1.0,1.0,57,0.00,,,0.00,0,WeatherCatV1.11B39,2013-01-21 09:12:00,
2013-01-21 02:17:00,43.0,29.7,30.03,North,1,0.0,0.0,59,0.00,,,0.00,0,WeatherCatV1.11B39,2013-01-21 09:17:00,
2013-01-21 02:22:00,42.9,29.2,30.03,North,1,0.0,1.0,58,0.00,,,0.00,0,WeatherCatV1.11B39,2013-01-21 09:22:00,
2013-01-21 02:27:00,42.8,29.5,30.03,North,1,0.0,0.0,59,0.00,,,0.00,0,WeatherCatV1.11B39,2013-01-21 09:27:00,
2013-01-21 02:32:00,42.5,29.6,30.03,North,1,0.0,0.0,60,0.00,,,0.00,0,WeatherCatV1.11B39,2013-01-21 09:32:00,
2013-01-21 02:37:00,42.3,29.4,30.03,North,1,0.0,1.0,60,0.00,,,0.00,0,WeatherCatV1.11B39,2013-01-21 09:37:00,
2013-01-21 02:42:00,42.2,29.7,30.03,North,1,1.0,1.0,61,0.00,,,0.00,0,WeatherCatV1.11B39,2013-01-21 09:42:00,
2013-01-21 02:47:00,42.1,29.6,30.03,North,1,1.0,1.0,61,0.00,,,0.00,0,WeatherCatV1.11B39,2013-01-21 09:47:00,
2013-01-21 02:52:00,42.1,29.6,30.04,North,1,1.0,1.0,61,0.00,,,0.00,0,WeatherCatV1.11B39,2013-01-21 09:52:00,
2013-01-21 02:57:00,42.1,29.6,30.04,North,1,2.0,3.0,61,0.00,,,0.00,0,WeatherCatV1.11B39,2013-01-21 09:57:00,
2013-01-21 03:02:00,41.8,29.7,30.04,North,1,1.0,2.0,62,0.00,,,0.00,0,WeatherCatV1.11B39,2013-01-21 10:02:00,
2013-01-21 03:07:00,42.0,29.9,30.04,North,1,0.0,1.0,62,0.00,,,0.00,0,WeatherCatV1.11B39,2013-01-21 10:07:00,
2013-01-21 03:12:00,42.1,29.6,30.04,North,1,0.0,0.0,61,0.00,,,0.00,0,WeatherCatV1.11B39,2013-01-21 10:12:00,
2013-01-21 03:17:00,42.0,29.9,30.04,North,1,0.0,0.0,62,0.00,,,0.00,0,WeatherCatV1.11B39,2013-01-21 10:17:00,
2013-01-21 03:22:00,41.7,29.7,30.04,North,1,0.0,0.0,62,0.00,,,0.00,0,WeatherCatV1.11B39,2013-01-21 10:22:00,
2013-01-21 03:27:00,41.4,29.8,30.04,North,1,0.0,0.0,63,0.00,,,0.00,0,WeatherCatV1.11B39,2013-01-21 10:27:00,
2013-01-21 03:32:00,41.1,29.5,30.04,North,1,0.0,0.0,63,0.00,,,0.00,0,WeatherCatV1.11B39,2013-01-21 10:32:00,
2013-01-21 03:37:00,40.9,29.7,30.04,North,1,0.0,1.0,64,0.00,,,0.00,0,WeatherCatV1.11B39,2013-01-21 10:37:00,
2013-01-21 03:42:00,40.7,29.5,30.04,North,1,1.0,2.0,64,0.00,,,0.00,0,WeatherCatV1.11B39,2013-01-21 10:42:00,
2013-01-21 03:47:00,40.9,29.7,30.04,North,1,0.0,2.0,64,0.00,,,0.00,0,WeatherCatV1.11B39,2013-01-21 10:47:00,
2013-01-21 03:52:00,41.4,30.1,30.04,North,1,2.0,2.0,64,0.00,,,0.00,0,WeatherCatV1.11B39,2013-01-21 10:52:00,
2013-01-21 03:57:00,41.8,30.1,30.04,North,1,0.0,1.0,63,0.00,,,0.00,0,WeatherCatV1.11B39,2013-01-21 10:57:00,
2013-01-21 04:02:00,41.9,29.8,30.04,North,1,0.0,2.0,62,0.00,,,0.00,0,WeatherCatV1.11B39,2013-01-21 11:02:00,
2013-01-21 04:07:00,41.8,29.7,30.04,North,1,1.0,2.0,62,0.00,,,0.00,0,WeatherCatV1.11B39,2013-01-21 11:07:00,
2013-01-21 04:12:00,41.6,30.0,30.04,North,1,2.0,3.0,63,0.00,,,0.00,0,WeatherCatV1.11B39,2013-01-21 11:12:00,
2013-01-21 04:17:00,41.6,30.3,30.03,North,1,0.0,2.0,64,0.00,,,0.00,0,WeatherCatV1.11B39,2013-01-21 11:17:00,
2013-01-21 04:22:00,41.7,30.8,30.03,North,1,2.0,2.0,65,0.00,,,0.00,0,WeatherCatV1.11B39,2013-01-21 11:22:00,
2013-01-21 04:27:00,41.5,30.2,30.03,North,1,0.0,0.0,64,0.00,,,0.00,0,WeatherCatV1.11B39,2013-01-21 11:27:00,
2013-01-21 04:32:00,41.6,30.3,30.03,North,1,1.0,2.0,64,0.00,,,0.00,0,WeatherCatV1.11B39,2013-01-21 11:32:00,
2013-01-21 04:37:00,41.7,30.4,30.03,North,1,1.0,2.0,64,0.00,,,0.00,0,WeatherCatV1.11B39,2013-01-21 11:37:00,
2013-01-21 04:42:00,41.6,30.3,30.03,North,1,0.0,2.0,64,0.00,,,0.00,0,WeatherCatV1.11B39,2013-01-21 11:42:00,
2013-01-21 04:47:00,41.5,30.2,30.03,North,1,0.0,1.0,64,0.00,,,0.00,0,WeatherCatV1.11B39,2013-01-21 11:47:00,
2013-01-21 04:52:00,41.3,30.1,30.03,North,1,2.0,3.0,64,0.00,,,0.00,0,WeatherCatV1.11B39,2013-01-21 11:52:00,
2013-01-21 04:57:00,41.4,30.1,30.03,North,1,2.0,2.0,64,0.00,,,0.00,0,WeatherCatV1.11B39,2013-01-21 11:57:00,
2013-01-21 05:02:00,41.4,30.1,30.03,North,1,1.0,2.0,64,0.00,,,0.00,0,WeatherCatV1.11B39,2013-01-21 12:02:00,
2013-01-21 05:07:00,41.3,30.1,30.03,North,1,1.0,2.0,64,0.00,,,0.00,0,WeatherCatV1.11B39,2013-01-21 12:07:00,
2013-01-21 05:12:00,41.3,30.1,30.03,North,1,1.0,3.0,64,0.00,,,0.00,0,WeatherCatV1.11B39,2013-01-21 12:12:00,
2013-01-21 05:17:00,41.2,30.0,30.03,North,1,2.0,2.0,64,0.00,,,0.00,0,WeatherCatV1.11B39,2013-01-21 12:17:00,
2013-01-21 05:22:00,41.4,30.1,30.03,North,1,1.0,2.0,64,0.00,,,0.00,0,WeatherCatV1.11B39,2013-01-21 12:22:00,
2013-01-21 05:27:00,41.3,30.1,30.02,North,1,2.0,2.0,64,0.00,,,0.00,0,WeatherCatV1.11B39,2013-01-21 12:27:00,
2013-01-21 05:32:00,41.2,30.0,30.03,North,1,1.0,2.0,64,0.00,,,0.00,0,WeatherCatV1.11B39,2013-01-21 12:32:00,
2013-01-21 05:37:00,41.3,30.1,30.02,North,1,1.0,2.0,64,0.00,,,0.00,0,WeatherCatV1.11B39,2013-01-21 12:37:00,
2013-01-21 05:42:00,41.3,30.1,30.02,North,1,2.0,2.0,64,0.00,,,0.00,0,WeatherCatV1.11B39,2013-01-21 12:42:00,
2013-01-21 05:47:00,41.1,29.9,30.02,North,1,2.0,3.0,64,0.00,,,0.00,0,WeatherCatV1.11B39,2013-01-21 12:47:00,
2013-01-21 05:52:00,41.0,29.8,30.02,North,1,3.0,3.0,64,0.00,,,0.00,0,WeatherCatV1.11B39,2013-01-21 12:52:00,
2013-01-21 05:57:00,41.3,30.1,30.02,North,1,1.0,2.0,64,0.00,,,0.00,0,WeatherCatV1.11B39,2013-01-21 12:57:00,
2013-01-21 06:02:00,41.4,29.8,30.02,North,1,0.0,0.0,63,0.00,,,0.00,0,WeatherCatV1.11B39,2013-01-21 13:02:00,
2013-01-21 06:07:00,41.2,30.0,30.02,North,1,0.0,0.0,64,0.00,,,0.00,0,WeatherCatV1.11B39,2013-01-21 13:07:00,
2013-01-21 06:12:00,40.9,30.1,30.01,North,1,0.0,0.0,65,0.00,,,0.00,0,WeatherCatV1.11B39,2013-01-21 13:12:00,
2013-01-21 06:17:00,40.6,29.8,30.02,North,1,0.0,0.0,65,0.00,,,0.00,0,WeatherCatV1.11B39,2013-01-21 13:17:00,
2013-01-21 06:22:00,40.4,30.0,30.02,North,1,1.0,2.0,66,0.00,,,0.00,0,WeatherCatV1.11B39,2013-01-21 13:22:00,
2013-01-21 06:27:00,40.2,29.8,30.02,North,1,0.0,0.0,66,0.00,,,0.00,0,WeatherCatV1.11B39,2013-01-21 13:27:00,
2013-01-21 06:32:00,39.8,29.4,30.02,North,1,0.0,0.0,66,0.00,,,0.00,0,WeatherCatV1.11B39,2013-01-21 13:32:00,
2013-01-21 06:37:00,39.7,29.7,30.03,North,1,0.0,1.0,67,0.00,,,0.00,0,WeatherCatV1.11B39,2013-01-21 13:37:00,
2013-01-21 06:42:00,39.6,29.6,30.02,North,1,0.0,0.0,67,0.00,,,0.00,0,WeatherCatV1.11B39,2013-01-21 13:42:00,
2013-01-21 06:47:00,39.3,29.3,30.02,North,1,0.0,0.0,67,0.00,,,0.00,0,WeatherCatV1.11B39,2013-01-21 13:47:00,
2013-01-21 06:52:00,39.1,29.4,30.03,North,1,0.0,0.0,68,0.00,,,0.00,0,WeatherCatV1.11B39,2013-01-21 13:52:00,
2013-01-21 06:57:00,39.0,29.7,30.03,North,1,0.0,0.0,69,0.00,,,0.00,0,WeatherCatV1.11B39,2013-01-21 13:57:00,
2013-01-21 07:02:00,38.9,29.6,30.03,North,1,0.0,0.0,69,0.00,,,0.00,0,WeatherCatV1.11B39,2013-01-21 14:02:00,
2013-01-21 07:07:00,38.9,29.6,30.03,North,1,0.0,0.0,69,0.00,,,0.00,0,WeatherCatV1.11B39,2013-01-21 14:07:00,
2013-01-21 07:12:00,38.9,29.6,30.03,North,1,0.0,1.0,69,0.00,,,0.00,0,WeatherCatV1.11B39,2013-01-21 14:12:00,
2013-01-21 07:17:00,39.1,29.8,30.03,North,1,0.0,1.0,69,0.00,,,0.00,0,WeatherCatV1.11B39,2013-01-21 14:17:00,
2013-01-21 07:22:00,39.1,29.8,30.03,North,1,0.0,0.0,69,0.00,,,0.00,5,WeatherCatV1.11B39,2013-01-21 14:22:00,
2013-01-21 07:27:00,39.1,29.8,30.03,North,1,0.0,1.0,69,0.00,,,0.00,7,WeatherCatV1.11B39,2013-01-21 14:27:00,
2013-01-21 07:32:00,38.8,29.5,30.04,North,1,1.0,2.0,69,0.00,,,0.00,9,WeatherCatV1.11B39,2013-01-21 14:32:00,
2013-01-21 07:37:00,38.8,29.5,30.04,North,1,0.0,1.0,69,0.00,,,0.00,12,WeatherCatV1.11B39,2013-01-21 14:37:00,
2013-01-21 07:42:00,39.1,29.8,30.04,North,1,0.0,0.0,69,0.00,,,0.00,14,WeatherCatV1.11B39,2013-01-21 14:42:00,
2013-01-21 07:47:00,39.1,29.8,30.04,North,1,1.0,2.0,69,0.00,,,0.00,18,WeatherCatV1.11B39,2013-01-21 14:47:00,
2013-01-21 07:52:00,39.4,30.1,30.04,North,1,2.0,2.0,69,0.00,,,0.00,23,WeatherCatV1.11B39,2013-01-21 14:52:00,
2013-01-21 07:57:00,40.1,30.4,30.04,North,1,0.0,1.0,68,0.00,,,0.00,33,WeatherCatV1.11B39,2013-01-21 14:57:00,
2013-01-21 08:02:00,41.2,31.1,30.04,North,1,0.0,0.0,67,0.00,,,0.00,56,WeatherCatV1.11B39,2013-01-21 15:02:00,
2013-01-21 08:07:00,42.1,31.2,30.04,North,1,0.0,1.0,65,0.00,,,0.00,74,WeatherCatV1.11B39,2013-01-21 15:07:00,
2013-01-21 08:12:00,43.5,31.8,30.04,North,1,0.0,1.0,63,0.00,,,0.00,95,WeatherCatV1.11B39,2013-01-21 15:12:00,
2013-01-21 08:17:00,45.0,32.0,30.04,North,1,0.0,1.0,60,0.00,,,0.00,113,WeatherCatV1.11B39,2013-01-21 15:17:00,
2013-01-21 08:22:00,46.2,31.8,30.04,North,1,1.0,1.0,57,0.00,,,0.00,130,WeatherCatV1.11B39,2013-01-21 15:22:00,
2013-01-21 08:27:00,47.3,31.5,30.05,North,1,0.0,0.0,54,0.00,,,0.00,146,WeatherCatV1.11B39,2013-01-21 15:27:00,
2013-01-21 08:32:00,48.2,31.9,30.05,North,1,0.0,1.0,53,0.00,,,0.00,167,WeatherCatV1.11B39,2013-01-21 15:32:00,
2013-01-21 08:37:00,48.9,31.6,30.05,North,1,0.0,1.0,51,0.00,,,0.00,183,WeatherCatV1.11B39,2013-01-21 15:37:00,
2013-01-21 08:42:00,49.6,31.7,30.05,North,1,1.0,2.0,50,0.00,,,0.00,200,WeatherCatV1.11B39,2013-01-21 15:42:00,
2013-01-21 08:47:00,50.1,32.2,30.05,North,1,0.0,2.0,50,0.00,,,0.00,214,WeatherCatV1.11B39,2013-01-21 15:47:00,
2013-01-21 08:52:00,50.8,31.8,30.06,North,353,2.0,3.0,48,0.00,,,0.00,229,WeatherCatV1.11B39,2013-01-21 15:52:00,
2013-01-21 08:57:00,51.3,32.3,30.06,NNW,348,2.0,3.0,48,0.00,,,0.00,246,WeatherCatV1.11B39,2013-01-21 15:57:00,
2013-01-21 09:02:00,51.7,32.1,30.06,NNW,348,0.0,0.0,47,0.00,,,0.00,260,WeatherCatV1.11B39,2013-01-21 16:02:00,
2013-01-21 09:07:00,52.3,31.6,30.07,NNW,348,1.0,2.0,45,0.00,,,0.00,274,WeatherCatV1.11B39,2013-01-21 16:07:00,
2013-01-21 09:12:00,53.0,31.7,30.07,NNW,348,0.0,2.0,44,0.00,,,0.00,292,WeatherCatV1.11B39,2013-01-21 16:12:00,
2013-01-21 09:17:00,53.5,31.6,30.07,NNW,339,0.0,2.0,43,0.00,,,0.00,304,WeatherCatV1.11B39,2013-01-21 16:17:00,
2013-01-21 09:22:00,54.4,32.4,30.08,NNW,348,0.0,1.0,43,0.00,,,0.00,318,WeatherCatV1.11B39,2013-01-21 16:22:00,
2013-01-21 09:27:00,55.3,32.6,30.08,NNW,343,4.0,4.0,42,0.00,,,0.00,334,WeatherCatV1.11B39,2013-01-21 16:27:00,
2013-01-21 09:32:00,56.4,32.4,30.08,WNW,295,3.0,5.0,40,0.00,,,0.00,348,WeatherCatV1.11B39,2013-01-21 16:32:00,
2013-01-21 09:37:00,57.0,32.3,30.08,WNW,284,1.0,1.0,39,0.00,,,0.00,360,WeatherCatV1.11B39,2013-01-21 16:37:00,
2013-01-21 09:42:00,57.4,32.0,30.08,WNW,286,2.0,5.0,38,0.00,,,0.00,376,WeatherCatV1.11B39,2013-01-21 16:42:00,
2013-01-21 09:47:00,57.8,31.7,30.08,WNW,288,2.0,4.0,37,0.00,,,0.00,388,WeatherCatV1.11B39,2013-01-21 16:47:00,
2013-01-21 09:52:00,58.6,31.7,30.08,WNW,288,2.0,3.0,36,0.00,,,0.00,403,WeatherCatV1.11B39,2013-01-21 16:52:00,
2013-01-21 09:57:00,58.9,32.0,30.08,West,271,4.0,5.0,36,0.00,,,0.00,417,WeatherCatV1.11B39,2013-01-21 16:57:00,
2013-01-21 10:02:00,59.6,31.9,30.09,West,260,5.0,5.0,35,0.00,,,0.00,427,WeatherCatV1.11B39,2013-01-21 17:02:00,
2013-01-21 10:07:00,60.3,31.8,30.09,West,259,4.0,4.0,34,0.00,,,0.00,439,WeatherCatV1.11B39,2013-01-21 17:07:00,
2013-01-21 10:12:00,61.0,32.4,30.09,West,265,1.0,3.0,34,0.00,,,0.00,454,WeatherCatV1.11B39,2013-01-21 17:12:00,
2013-01-21 10:17:00,62.1,31.9,30.09,West,265,2.0,4.0,32,0.00,,,0.00,466,WeatherCatV1.11B39,2013-01-21 17:17:00,
2013-01-21 10:22:00,61.9,30.9,30.09,WSW,251,4.0,4.0,31,0.00,,,0.00,475,WeatherCatV1.11B39,2013-01-21 17:22:00,
2013-01-21 10:27:00,62.3,30.5,30.09,West,276,2.0,4.0,30,0.00,,,0.00,487,WeatherCatV1.11B39,2013-01-21 17:27:00,
2013-01-21 10:32:00,62.3,30.5,30.09,West,265,3.0,4.0,30,0.00,,,0.00,497,WeatherCatV1.11B39,2013-01-21 17:32:00,
2013-01-21 10:37:00,62.8,30.9,30.09,SW,229,3.0,6.0,30,0.00,,,0.00,506,WeatherCatV1.11B39,2013-01-21 17:37:00,
2013-01-21 10:42:00,63.4,31.4,30.09,WSW,249,1.0,5.0,30,0.00,,,0.00,517,WeatherCatV1.11B39,2013-01-21 17:42:00,
2013-01-21 10:47:00,64.2,32.1,30.09,WNW,284,5.0,5.0,30,0.00,,,0.00,527,WeatherCatV1.11B39,2013-01-21 17:47:00,
2013-01-21 10:52:00,64.5,31.5,30.08,WNW,288,1.0,3.0,29,0.00,,,0.00,538,WeatherCatV1.11B39,2013-01-21 17:52:00,
2013-01-21 10:57:00,64.8,31.8,30.08,WNW,282,1.0,4.0,29,0.00,,,0.00,547,WeatherCatV1.11B39,2013-01-21 17:57:00,
2013-01-21 11:02:00,65.5,32.4,30.08,WSW,241,3.0,4.0,29,0.00,,,0.00,554,WeatherCatV1.11B39,2013-01-21 18:02:00,
2013-01-21 11:07:00,65.7,31.7,30.08,SW,215,1.0,4.0,28,0.00,,,0.00,561,WeatherCatV1.11B39,2013-01-21 18:07:00,
2013-01-21 11:12:00,66.2,31.2,30.08,SW,230,2.0,4.0,27,0.00,,,0.00,571,WeatherCatV1.11B39,2013-01-21 18:12:00,
2013-01-21 11:17:00,66.9,31.8,30.08,WNW,286,3.0,5.0,27,0.00,,,0.00,577,WeatherCatV1.11B39,2013-01-21 18:17:00,
2013-01-21 11:22:00,67.9,31.7,30.08,WNW,298,2.0,4.0,26,0.00,,,0.00,582,WeatherCatV1.11B39,2013-01-21 18:22:00,
2013-01-21 11:27:00,68.1,31.9,30.08,WNW,296,1.0,3.0,26,0.00,,,0.00,592,WeatherCatV1.11B39,2013-01-21 18:27:00,
2013-01-21 11:32:00,69.6,32.2,30.07,WNW,284,5.0,8.0,25,0.00,,,0.00,598,WeatherCatV1.11B39,2013-01-21 18:32:00,
2013-01-21 11:37:00,71.1,32.5,30.07,WNW,292,3.0,3.0,24,0.00,,,0.00,601,WeatherCatV1.11B39,2013-01-21 18:37:00,
2013-01-21 11:42:00,73.0,31.9,30.06,ESE,109,9.0,14.0,22,0.00,,,0.00,606,WeatherCatV1.11B39,2013-01-21 18:42:00,
2013-01-21 11:47:00,74.3,31.8,30.06,ESE,108,4.0,10.0,21,0.00,,,0.00,612,WeatherCatV1.11B39,2013-01-21 18:47:00,
2013-01-21 11:52:00,74.6,32.1,30.05,ESE,107,5.0,14.0,21,0.00,,,0.00,615,WeatherCatV1.11B39,2013-01-21 18:52:00,
2013-01-21 11:57:00,75.0,32.4,30.05,ESE,103,5.0,9.0,21,0.00,,,0.00,619,WeatherCatV1.11B39,2013-01-21 18:57:00,
2013-01-21 12:02:00,74.9,32.3,30.05,East,80,6.0,12.0,21,0.00,,,0.00,624,WeatherCatV1.11B39,2013-01-21 19:02:00,
2013-01-21 12:07:00,75.6,31.7,30.04,ESE,119,7.0,13.0,20,0.00,,,0.00,626,WeatherCatV1.11B39,2013-01-21 19:07:00,
2013-01-21 12:12:00,75.7,31.8,30.04,East,92,10.0,12.0,20,0.00,,,0.00,628,WeatherCatV1.11B39,2013-01-21 19:12:00,
2013-01-21 12:17:00,75.9,31.9,30.04,ESE,105,8.0,9.0,20,0.00,,,0.00,631,WeatherCatV1.11B39,2013-01-21 19:17:00,
2013-01-21 12:22:00,76.1,32.1,30.04,East,101,2.0,8.0,20,0.00,,,0.00,631,WeatherCatV1.11B39,2013-01-21 19:22:00,
2013-01-21 12:27:00,76.3,32.3,30.03,ESE,106,10.0,13.0,20,0.00,,,0.00,633,WeatherCatV1.11B39,2013-01-21 19:27:00,
2013-01-21 12:32:00,76.5,32.4,30.03,ESE,107,9.0,10.0,20,0.00,,,0.00,633,WeatherCatV1.11B39,2013-01-21 19:32:00,
2013-01-21 12:37:00,76.7,32.6,30.03,ENE,73,5.0,8.0,20,0.00,,,0.00,635,WeatherCatV1.11B39,2013-01-21 19:37:00,
2013-01-21 12:42:00,76.6,33.7,30.02,ESE,106,1.0,4.0,21,0.00,,,0.00,635,WeatherCatV1.11B39,2013-01-21 19:42:00,
2013-01-21 12:47:00,76.7,33.8,30.02,East,86,0.0,5.0,21,0.00,,,0.00,633,WeatherCatV1.11B39,2013-01-21 19:47:00,
2013-01-21 12:52:00,77.6,34.6,30.02,SE,124,1.0,7.0,21,0.00,,,0.00,633,WeatherCatV1.11B39,2013-01-21 19:52:00,
2013-01-21 12:57:00,76.8,33.9,30.02,East,88,1.0,3.0,21,0.00,,,0.00,631,WeatherCatV1.11B39,2013-01-21 19:57:00,
2013-01-21 13:02:00,77.1,32.9,30.01,South,185,2.0,5.0,20,0.00,,,0.00,631,WeatherCatV1.11B39,2013-01-21 20:02:00,
2013-01-21 13:07:00,77.5,33.3,30.01,East,97,0.0,3.0,20,0.00,,,0.00,628,WeatherCatV1.11B39,2013-01-21 20:07:00,
2013-01-21 13:12:00,77.5,33.3,30.01,ESE,102,2.0,9.0,20,0.00,,,0.00,626,WeatherCatV1.11B39,2013-01-21 20:12:00,
2013-01-21 13:17:00,77.5,34.5,30.01,South,170,4.0,5.0,21,0.00,,,0.00,621,WeatherCatV1.11B39,2013-01-21 20:17:00,
2013-01-21 13:22:00,77.5,33.3,30.00,South,179,3.0,4.0,20,0.00,,,0.00,619,WeatherCatV1.11B39,2013-01-21 20:22:00,
2013-01-21 13:27:00,77.8,33.5,30.00,SW,227,2.0,2.0,20,0.00,,,0.00,615,WeatherCatV1.11B39,2013-01-21 20:27:00,
2013-01-21 13:32:00,78.0,33.7,30.00,SSW,201,1.0,3.0,20,0.00,,,0.00,610,WeatherCatV1.11B39,2013-01-21 20:32:00,
2013-01-21 13:37:00,77.7,33.4,30.00,SE,132,3.0,3.0,20,0.00,,,0.00,606,WeatherCatV1.11B39,2013-01-21 20:37:00,
2013-01-21 13:42:00,77.8,33.5,29.99,ESE,110,3.0,3.0,20,0.00,,,0.00,601,WeatherCatV1.11B39,2013-01-21 20:42:00,
2013-01-21 13:47:00,78.3,33.9,29.99,South,182,4.0,6.0,20,0.00,,,0.00,594,WeatherCatV1.11B39,2013-01-21 20:47:00,
2013-01-21 13:52:00,79.1,34.6,29.99,SSW,192,2.0,3.0,20,0.00,,,0.00,589,WeatherCatV1.11B39,2013-01-21 20:52:00,
2013-01-21 13:57:00,78.6,34.2,29.98,South,177,4.0,5.0,20,0.00,,,0.00,582,WeatherCatV1.11B39,2013-01-21 20:57:00,
2013-01-21 14:02:00,78.9,34.4,29.98,SSW,210,3.0,3.0,20,0.00,,,0.00,577,WeatherCatV1.11B39,2013-01-21 21:02:00,
2013-01-21 14:07:00,79.2,34.7,29.98,South,184,3.0,7.0,20,0.00,,,0.00,566,WeatherCatV1.11B39,2013-01-21 21:07:00,
2013-01-21 14:12:00,79.0,34.5,29.98,South,184,1.0,5.0,20,0.00,,,0.00,559,WeatherCatV1.11B39,2013-01-21 21:12:00,
2013-01-21 14:17:00,78.7,34.2,29.98,SSW,193,2.0,2.0,20,0.00,,,0.00,552,WeatherCatV1.11B39,2013-01-21 21:17:00,
2013-01-21 14:22:00,79.0,34.5,29.98,WSW,238,0.0,5.0,20,0.00,,,0.00,541,WeatherCatV1.11B39,2013-01-21 21:22:00,
2013-01-21 14:27:00,79.4,34.8,29.97,SSW,210,4.0,8.0,20,0.00,,,0.00,534,WeatherCatV1.11B39,2013-01-21 21:27:00,
2013-01-21 14:32:00,79.1,34.6,29.97,WSW,249,4.0,5.0,20,0.00,,,0.00,526,WeatherCatV1.11B39,2013-01-21 21:32:00,
2013-01-21 14:37:00,78.6,34.2,29.97,WSW,254,2.0,3.0,20,0.00,,,0.00,515,WeatherCatV1.11B39,2013-01-21 21:37:00,
2013-01-21 14:42:00,78.6,34.2,29.97,WSW,240,3.0,5.0,20,0.00,,,0.00,504,WeatherCatV1.11B39,2013-01-21 21:42:00,
2013-01-21 14:47:00,79.0,34.5,29.97,WSW,257,2.0,5.0,20,0.00,,,0.00,496,WeatherCatV1.11B39,2013-01-21 21:47:00,
2013-01-21 14:52:00,79.2,34.7,29.97,South,177,3.0,7.0,20,0.00,,,0.00,483,WeatherCatV1.11B39,2013-01-21 21:52:00,
2013-01-21 14:57:00,78.8,34.3,29.97,South,176,3.0,4.0,20,0.00,,,0.00,473,WeatherCatV1.11B39,2013-01-21 21:57:00,
2013-01-21 15:02:00,78.9,34.4,29.97,SSW,195,2.0,6.0,20,0.00,,,0.00,462,WeatherCatV1.11B39,2013-01-21 22:02:00,
2013-01-21 15:07:00,79.3,34.7,29.97,SSW,207,0.0,2.0,20,0.00,,,0.00,450,WeatherCatV1.11B39,2013-01-21 22:07:00,
2013-01-21 15:12:00,78.7,34.2,29.96,SSW,207,0.0,1.0,20,0.00,,,0.00,438,WeatherCatV1.11B39,2013-01-21 22:12:00,
2013-01-21 15:17:00,78.5,35.3,29.96,WSW,250,1.0,4.0,21,0.00,,,0.00,429,WeatherCatV1.11B39,2013-01-21 22:17:00,
2013-01-21 15:22:00,78.8,35.5,29.96,SSW,213,7.0,7.0,21,0.00,,,0.00,415,WeatherCatV1.11B39,2013-01-21 22:22:00,
2013-01-21 15:27:00,79.6,35.0,29.96,West,276,4.0,6.0,20,0.00,,,0.00,404,WeatherCatV1.11B39,2013-01-21 22:27:00,
2013-01-21 15:32:00,78.9,34.4,29.96,West,261,3.0,6.0,20,0.00,,,0.00,394,WeatherCatV1.11B39,2013-01-21 22:32:00,
2013-01-21 15:37:00,79.4,34.8,29.96,WSW,246,6.0,7.0,20,0.00,,,0.00,381,WeatherCatV1.11B39,2013-01-21 22:37:00,
2013-01-21 15:42:00,78.9,34.4,29.96,WSW,257,4.0,4.0,20,0.00,,,0.00,373,WeatherCatV1.11B39,2013-01-21 22:42:00,
2013-01-21 15:47:00,78.6,34.2,29.96,WSW,239,4.0,7.0,20,0.00,,,0.00,362,WeatherCatV1.11B39,2013-01-21 22:47:00,
2013-01-21 15:52:00,78.6,35.4,29.96,WSW,256,7.0,8.0,21,0.00,,,0.00,350,WeatherCatV1.11B39,2013-01-21 22:52:00,
2013-01-21 15:57:00,78.7,35.5,29.96,WSW,257,2.0,5.0,21,0.00,,,0.00,338,WeatherCatV1.11B39,2013-01-21 22:57:00,
2013-01-21 16:02:00,78.7,35.5,29.96,West,259,2.0,4.0,21,0.00,,,0.00,329,WeatherCatV1.11B39,2013-01-21 23:02:00,
2013-01-21 16:07:00,78.6,35.4,29.96,SW,232,2.0,5.0,21,0.00,,,0.00,309,WeatherCatV1.11B39,2013-01-21 23:07:00,
2013-01-21 16:12:00,78.8,35.5,29.95,WSW,243,5.0,7.0,21,0.00,,,0.00,297,WeatherCatV1.11B39,2013-01-21 23:12:00,
2013-01-21 16:17:00,78.7,35.5,29.95,West,267,4.0,7.0,21,0.00,,,0.00,278,WeatherCatV1.11B39,2013-01-21 23:17:00,
2013-01-21 16:22:00,78.2,35.1,29.95,West,261,3.0,4.0,21,0.00,,,0.00,258,WeatherCatV1.11B39,2013-01-21 23:22:00,
2013-01-21 16:27:00,78.5,35.3,29.95,SW,236,3.0,6.0,21,0.00,,,0.00,234,WeatherCatV1.11B39,2013-01-21 23:27:00,
2013-01-21 16:32:00,78.3,35.1,29.95,SW,232,5.0,7.0,21,0.00,,,0.00,211,WeatherCatV1.11B39,2013-01-21 23:32:00,
2013-01-21 16:37:00,77.9,34.8,29.96,West,273,5.0,9.0,21,0.00,,,0.00,178,WeatherCatV1.11B39,2013-01-21 23:37:00,
2013-01-21 16:42:00,77.6,35.7,29.96,WNW,288,5.0,8.0,22,0.00,,,0.00,95,WeatherCatV1.11B39,2013-01-21 23:42:00,
2013-01-21 16:47:00,77.5,35.6,29.95,West,273,6.0,8.0,22,0.00,,,0.00,63,WeatherCatV1.11B39,2013-01-21 23:47:00,
2013-01-21 16:52:00,77.2,35.4,29.96,West,265,6.0,7.0,22,0.00,,,0.00,53,WeatherCatV1.11B39,2013-01-21 23:52:00,
2013-01-21 16:57:00,76.6,34.9,29.95,WNW,282,8.0,9.0,22,0.00,,,0.00,56,WeatherCatV1.11B39,2013-01-21 23:57:00,
2013-01-21 17:02:00,76.0,34.4,29.96,WNW,287,5.0,9.0,22,0.00,,,0.00,49,WeatherCatV1.11B39,2013-01-22 00:02:00,
2013-01-21 17:07:00,75.7,35.3,29.96,West,272,4.0,7.0,23,0.00,,,0.00,39,WeatherCatV1.11B39,2013-01-22 00:07:00,
2013-01-21 17:12:00,75.3,34.9,29.96,West,280,3.0,5.0,23,0.00,,,0.00,42,WeatherCatV1.11B39,2013-01-22 00:12:00,
2013-01-21 17:17:00,74.8,34.5,29.96,WNW,290,6.0,7.0,23,0.00,,,0.00,26,WeatherCatV1.11B39,2013-01-22 00:17:00,
2013-01-21 17:23:00,74.4,34.2,29.96,West,276,5.0,5.0,23,0.00,,,0.00,23,WeatherCatV1.11B39,2013-01-22 00:23:00,
2013-01-21 17:28:00,73.7,34.7,29.96,West,277,2.0,5.0,24,0.00,,,0.00,16,WeatherCatV1.11B39,2013-01-22 00:28:00,
2013-01-21 17:33:00,73.1,34.2,29.96,West,280,3.0,5.0,24,0.00,,,0.00,14,WeatherCatV1.11B39,2013-01-22 00:33:00,
2013-01-21 17:38:00,72.4,34.6,29.96,West,273,1.0,3.0,25,0.00,,,0.00,11,WeatherCatV1.11B39,2013-01-22 00:38:00,
2013-01-21 17:43:00,71.7,34.0,29.96,West,272,2.0,4.0,25,0.00,,,0.00,7,WeatherCatV1.11B39,2013-01-22 00:43:00,
2013-01-21 17:48:00,70.9,34.3,29.96,West,271,4.0,4.0,26,0.00,,,0.00,5,WeatherCatV1.11B39,2013-01-22 00:48:00,
2013-01-21 17:53:00,70.0,33.5,29.96,West,271,0.0,2.0,26,0.00,,,0.00,0,WeatherCatV1.11B39,2013-01-22 00:53:00,
2013-01-21 17:58:00,68.9,33.5,29.97,West,271,1.0,2.0,27,0.00,,,0.00,0,WeatherCatV1.11B39,2013-01-22 00:58:00,
2013-01-21 18:03:00,67.8,33.5,29.97,West,271,0.0,0.0,28,0.00,,,0.00,0,WeatherCatV1.11B39,2013-01-22 01:03:00,
2013-01-21 18:08:00,67.6,33.3,29.97,West,271,1.0,2.0,28,0.00,,,0.00,0,WeatherCatV1.11B39,2013-01-22 01:08:00,
2013-01-21 18:13:00,66.3,33.9,29.97,West,269,3.0,3.0,30,0.00,,,0.00,0,WeatherCatV1.11B39,2013-01-22 01:13:00,
2013-01-21 18:18:00,65.7,33.4,29.98,West,269,0.0,1.0,30,0.00,,,0.00,0,WeatherCatV1.11B39,2013-01-22 01:18:00,
2013-01-21 18:23:00,65.3,33.9,29.98,West,270,0.0,2.0,31,0.00,,,0.00,0,WeatherCatV1.11B39,2013-01-22 01:23:00,
2013-01-21 18:28:00,64.5,34.0,29.98,West,270,1.0,1.0,32,0.00,,,0.00,0,WeatherCatV1.11B39,2013-01-22 01:28:00,
2013-01-21 18:33:00,64.0,33.5,29.99,SE,127,3.0,4.0,32,0.00,,,0.00,0,WeatherCatV1.11B39,2013-01-22 01:33:00,
2013-01-21 18:38:00,64.2,33.7,29.98,SE,143,1.0,4.0,32,0.00,,,0.00,0,WeatherCatV1.11B39,2013-01-22 01:38:00,
2013-01-21 18:43:00,64.0,33.5,29.99,SE,143,0.0,3.0,32,0.00,,,0.00,0,WeatherCatV1.11B39,2013-01-22 01:43:00,
2013-01-21 18:48:00,63.3,33.7,29.99,SE,141,2.0,3.0,33,0.00,,,0.00,0,WeatherCatV1.11B39,2013-01-22 01:48:00,
2013-01-21 18:53:00,62.9,33.4,29.99,SE,140,1.0,2.0,33,0.00,,,0.00,0,WeatherCatV1.11B39,2013-01-22 01:53:00,
2013-01-21 18:58:00,62.6,33.1,29.99,SE,139,0.0,2.0,33,0.00,,,0.00,0,WeatherCatV1.11B39,2013-01-22 01:58:00,
2013-01-21 19:03:00,62.0,33.3,29.99,SE,138,0.0,1.0,34,0.00,,,0.00,0,WeatherCatV1.11B39,2013-01-22 02:03:00,
2013-01-21 19:08:00,61.4,32.8,29.99,SE,138,1.0,2.0,34,0.00,,,0.00,0,WeatherCatV1.11B39,2013-01-22 02:08:00,
2013-01-21 19:13:00,61.4,32.8,29.99,SE,126,1.0,3.0,34,0.00,,,0.00,0,WeatherCatV1.11B39,2013-01-22 02:13:00,
2013-01-21 19:18:00,61.8,33.1,29.99,ESE,116,0.0,2.0,34,0.00,,,0.00,0,WeatherCatV1.11B39,2013-01-22 02:18:00,
2013-01-21 19:23:00,61.8,33.1,29.99,ESE,116,0.0,2.0,34,0.00,,,0.00,0,WeatherCatV1.11B39,2013-01-22 02:23:00,
2013-01-21 19:28:00,61.3,32.7,29.99,ESE,116,0.0,1.0,34,0.00,,,0.00,0,WeatherCatV1.11B39,2013-01-22 02:28:00,
2013-01-21 19:33:00,60.5,32.7,30.00,ESE,116,0.0,1.0,35,0.00,,,0.00,0,WeatherCatV1.11B39,2013-01-22 02:33:00,
2013-01-21 19:38:00,59.6,32.6,30.00,ESE,116,1.0,1.0,36,0.00,,,0.00,0,WeatherCatV1.11B39,2013-01-22 02:38:00,
2013-01-21 19:43:00,58.9,32.7,30.00,ESE,116,1.0,1.0,37,0.00,,,0.00,0,WeatherCatV1.11B39,2013-01-22 02:43:00,
2013-01-21 19:48:00,58.1,32.6,30.00,ESE,116,1.0,2.0,38,0.00,,,0.00,0,WeatherCatV1.11B39,2013-01-22 02:48:00,
2013-01-21 19:53:00,57.9,32.5,30.01,ESE,116,2.0,4.0,38,0.00,,,0.00,0,WeatherCatV1.11B39,2013-01-22 02:53:00,
2013-01-21 19:58:00,58.3,32.8,30.01,ESE,116,0.0,1.0,38,0.00,,,0.00,0,WeatherCatV1.11B39,2013-01-22 02:58:00,
2013-01-21 20:03:00,58.3,32.8,30.00,ESE,116,2.0,3.0,38,0.00,,,0.00,0,WeatherCatV1.11B39,2013-01-22 03:03:00,
2013-01-21 20:08:00,57.7,32.3,30.01,ESE,116,1.0,2.0,38,0.00,,,0.00,0,WeatherCatV1.11B39,2013-01-22 03:08:00,
2013-01-21 20:13:00,57.4,32.6,30.01,ESE,116,1.0,1.0,39,0.00,,,0.00,0,WeatherCatV1.11B39,2013-01-22 03:13:00,
2013-01-21 20:18:00,56.7,32.7,30.02,ESE,116,1.0,1.0,40,0.00,,,0.00,0,WeatherCatV1.11B39,2013-01-22 03:18:00,
2013-01-21 20:23:00,56.7,32.0,30.02,ESE,116,0.0,1.0,39,0.00,,,0.00,0,WeatherCatV1.11B39,2013-01-22 03:23:00,
2013-01-21 20:28:00,56.4,31.8,30.02,ESE,116,1.0,1.0,39,0.00,,,0.00,0,WeatherCatV1.11B39,2013-01-22 03:28:00,
2013-01-21 20:33:00,56.3,32.3,30.02,ESE,116,0.0,2.0,40,0.00,,,0.00,0,WeatherCatV1.11B39,2013-01-22 03:33:00,
2013-01-21 20:38:00,55.9,31.9,30.03,ESE,116,1.0,2.0,40,0.00,,,0.00,0,WeatherCatV1.11B39,2013-01-22 03:38:00,
2013-01-21 20:43:00,55.8,31.8,30.03,ESE,116,0.0,1.0,40,0.00,,,0.00,0,WeatherCatV1.11B39,2013-01-22 03:43:00,
2013-01-21 20:48:00,55.4,32.1,30.03,ESE,116,1.0,2.0,41,0.00,,,0.00,0,WeatherCatV1.11B39,2013-01-22 03:48:00,
2013-01-21 20:53:00,54.8,32.2,30.04,ESE,116,0.0,2.0,42,0.00,,,0.00,0,WeatherCatV1.11B39,2013-01-22 03:53:00,
2013-01-21 20:58:00,54.6,32.0,30.04,ESE,116,0.0,1.0,42,0.00,,,0.00,0,WeatherCatV1.11B39,2013-01-22 03:58:00,
2013-01-21 21:03:00,54.4,31.8,30.04,ESE,116,1.0,1.0,42,0.00,,,0.00,0,WeatherCatV1.11B39,2013-01-22 04:03:00,
2013-01-21 21:08:00,54.1,32.1,30.05,ESE,116,2.0,3.0,43,0.00,,,0.00,0,WeatherCatV1.11B39,2013-01-22 04:08:00,
2013-01-21 21:13:00,54.0,32.0,30.05,ESE,116,2.0,2.0,43,0.00,,,0.00,0,WeatherCatV1.11B39,2013-01-22 04:13:00,
2013-01-21 21:18:00,54.0,32.0,30.05,ESE,116,1.0,2.0,43,0.00,,,0.00,0,WeatherCatV1.11B39,2013-01-22 04:18:00,
2013-01-21 21:23:00,53.9,31.9,30.05,ESE,116,1.0,2.0,43,0.00,,,0.00,0,WeatherCatV1.11B39,2013-01-22 04:23:00,
2013-01-21 21:28:00,54.1,31.5,30.05,ESE,116,2.0,3.0,42,0.00,,,0.00,0,WeatherCatV1.11B39,2013-01-22 04:28:00,
2013-01-21 21:33:00,54.3,31.7,30.06,ESE,116,2.0,2.0,42,0.00,,,0.00,0,WeatherCatV1.11B39,2013-01-22 04:33:00,
2013-01-21 21:38:00,54.3,31.7,30.06,ESE,116,0.0,2.0,42,0.00,,,0.00,0,WeatherCatV1.11B39,2013-01-22 04:38:00,
2013-01-21 21:43:00,53.9,31.3,30.06,ESE,116,2.0,2.0,42,0.00,,,0.00,0,WeatherCatV1.11B39,2013-01-22 04:43:00,
2013-01-21 21:48:00,53.4,31.5,30.06,ESE,116,1.0,2.0,43,0.00,,,0.00,0,WeatherCatV1.11B39,2013-01-22 04:48:00,
2013-01-21 21:53:00,53.0,31.7,30.06,ESE,116,2.0,3.0,44,0.00,,,0.00,0,WeatherCatV1.11B39,2013-01-22 04:53:00,
2013-01-21 21:58:00,53.1,31.2,30.06,ESE,115,2.0,3.0,43,0.00,,,0.00,0,WeatherCatV1.11B39,2013-01-22 04:58:00,
2013-01-21 22:00:00,53.2,31.3,30.06,ESE,115,1.0,2.0,43,0.00,,,0.00,0,WeatherCatV1.11B39,2013-01-22 05:00:00,
2013-01-21 22:05:00,53.2,31.3,30.07,ESE,115,2.0,3.0,43,0.00,,,0.00,0,WeatherCatV1.11B39,2013-01-22 05:05:00,
2013-01-21 22:10:00,52.7,31.4,30.07,ESE,115,2.0,3.0,44,0.00,,,0.00,0,WeatherCatV1.11B39,2013-01-22 05:10:00,
2013-01-21 22:15:00,52.1,31.4,30.07,ESE,115,0.0,2.0,45,0.00,,,0.00,0,WeatherCatV1.11B39,2013-01-22 05:15:00,
2013-01-21 22:20:00,51.5,31.4,30.07,ESE,115,0.0,1.0,46,0.00,,,0.00,0,WeatherCatV1.11B39,2013-01-22 05:20:00,
2013-01-21 22:25:00,51.0,31.0,30.07,ESE,115,1.0,1.0,46,0.00,,,0.00,0,WeatherCatV1.11B39,2013-01-22 05:25:00,
2013-01-21 22:30:00,50.6,31.1,30.07,ESE,115,0.0,1.0,47,0.00,,,0.00,0,WeatherCatV1.11B39,2013-01-22 05:30:00,
2013-01-21 22:35:00,50.3,31.4,30.07,ESE,115,0.0,1.0,48,0.00,,,0.00,0,WeatherCatV1.11B39,2013-01-22 05:35:00,
2013-01-21 22:40:00,50.0,31.1,30.07,ESE,115,2.0,2.0,48,0.00,,,0.00,0,WeatherCatV1.11B39,2013-01-22 05:40:00,
2013-01-21 22:45:00,50.4,31.5,30.07,ESE,115,1.0,1.0,48,0.00,,,0.00,0,WeatherCatV1.11B39,2013-01-22 05:45:00,
2013-01-21 22:50:00,50.1,31.2,30.07,ESE,115,0.0,1.0,48,0.00,,,0.00,0,WeatherCatV1.11B39,2013-01-22 05:50:00,
2013-01-21 22:55:00,49.4,31.0,30.07,ESE,114,3.0,3.0,49,0.00,,,0.00,0,WeatherCatV1.11B39,2013-01-22 05:55:00,
2013-01-21 23:00:00,49.1,31.3,30.07,ESE,115,2.0,3.0,50,0.00,,,0.00,0,WeatherCatV1.11B39,2013-01-22 06:00:00,
2013-01-21 23:05:00,48.9,31.1,30.08,ESE,114,2.0,3.0,50,0.00,,,0.00,0,WeatherCatV1.11B39,2013-01-22 06:05:00,
2013-01-21 23:10:00,49.1,31.3,30.08,ESE,115,2.0,3.0,50,0.00,,,0.00,0,WeatherCatV1.11B39,2013-01-22 06:10:00,
2013-01-21 23:15:00,49.0,31.7,30.08,ESE,114,2.0,2.0,51,0.00,,,0.00,0,WeatherCatV1.11B39,2013-01-22 06:15:00,
2013-01-21 23:20:00,48.9,31.6,30.07,ESE,114,1.0,2.0,51,0.00,,,0.00,0,WeatherCatV1.11B39,2013-01-22 06:20:00,
2013-01-21 23:25:00,48.8,31.5,30.07,ESE,115,1.0,1.0,51,0.00,,,0.00,0,WeatherCatV1.11B39,2013-01-22 06:25:00,
2013-01-21 23:30:00,48.6,31.3,30.07,ESE,114,2.0,2.0,51,0.00,,,0.00,0,WeatherCatV1.11B39,2013-01-22 06:30:00,
2013-01-21 23:35:00,48.2,31.4,30.07,ESE,114,3.0,3.0,52,0.00,,,0.00,0,WeatherCatV1.11B39,2013-01-22 06:35:00,
2013-01-21 23:40:00,47.9,31.6,30.07,ESE,115,2.0,3.0,53,0.00,,,0.00,0,WeatherCatV1.11B39,2013-01-22 06:40:00,
2013-01-21 23:45:00,47.6,31.3,30.07,ESE,114,1.0,2.0,53,0.00,,,0.00,0,WeatherCatV1.11B39,2013-01-22 06:45:00,
2013-01-21 23:50:00,47.4,31.1,30.07,ESE,115,0.0,0.0,53,0.00,,,0.00,0,WeatherCatV1.11B39,2013-01-22 06:50:00,
2013-01-21 23:55:00,47.2,31.4,30.07,ESE,115,1.0,1.0,54,0.00,,,0.00,0,WeatherCatV1.11B39,2013-01-22 06:55:00,